UOSAT 2 (UO-11) (14781 NORAD) Tracking and Keplerian Element Data

This shows tracking and keplerian element data for the satellite.

Feedback or suggestion? Click here.




ElementValue
Catalog14781
NameUOSAT 2 (UO-11)
Epoch Orbit6318
Epoch Day324.49826099
Epoch Year2022
RAAN304.9813
Inclination97.6345
Eccentricity0.0008705
Argument of Perigee158.2892
Mean Anonmoly201.8694
Mean Motion14.83981953
Decay Rate8.71E-06
L11 14781U 84021B 22324.49826099 .00000871 00000+0 11065-3 0 9997
L22 14781 97.6345 304.9813 0008705 158.2892 201.8694 14.83981953 63189



Live tracking and technical data element details for UOSAT 2 (UO-11) (NORAD 14781). UOSAT 2 (UO-11) can be tracked NOW for your location showing map with azimuth and elevation plus other details from your city location.







IsCatalogInMostPopularTable: catalog: 14781, numindb: 683
Update: records affected: 1



GetName: 14781 UOSAT 2 (UO-11)

Hit Count: updated at: Mon, 28 Nov 2022 05:51:39 GMT